| time (UTC) | temp F | wind direction | speed MPH | gust MPH | rain 1hr in | rain 24hr in | rain mn in | humidity % | barometer mb |
| 20260901103039 | 55 | 97 | 4.0 | 6.0 | 0.00 | 0.00 | 0.00 | 64 | 1014.0 |
| 20260901101537 | 55 | 96 | 3.0 | 8.0 | 0.00 | 0.00 | 0.00 | 63 | 1014.0 |
| 20260901100039 | 54 | 83 | 4.0 | 7.0 | 0.00 | 0.00 | 0.00 | 64 | 1014.1 |
| 20260901094539 | 55 | 90 | 4.0 | 7.0 | 0.00 | 0.00 | 0.00 | 64 | 1014.1 |
| 20260901093039 | 55 | 115 | 4.0 | 7.0 | 0.00 | 0.00 | 0.00 | 63 | 1014.1 |
| 20260901091538 | 56 | 117 | 4.0 | 7.0 | 0.00 | 0.00 | 0.00 | 61 | 1014.0 |
| 20260901090039 | 56 | 134 | 4.0 | 7.0 | 0.00 | 0.00 | 0.00 | 62 | 1014.1 |
| 20260901084539 | 56 | 132 | 3.0 | 5.0 | 0.00 | 0.00 | 0.00 | 61 | 1014.1 |
| 20260901083039 | 56 | 150 | 2.0 | 3.0 | 0.00 | 0.00 | 0.00 | 61 | 1014.1 |
| 20260901081537 | 56 | 157 | 1.0 | 3.0 | 0.00 | 0.00 | 0.00 | 60 | 1014.3 |
| 20260901080036 | 56 | 155 | 4.0 | 5.0 | 0.00 | 0.00 | 0.00 | 60 | 1014.4 |
| 20260901074535 | 57 | 146 | 3.0 | 5.0 | 0.00 | 0.00 | 0.00 | 58 | 1014.4 |
| 20260901073037 | 57 | 126 | 3.0 | 6.0 | 0.00 | 0.00 | 0.00 | 59 | 1014.5 |
| 20260901071536 | 56 | 109 | 2.0 | 4.0 | 0.00 | 0.00 | 0.00 | 60 | 1014.5 |
| 20260901070036 | 58 | 128 | 6.0 | 8.0 | 0.00 | 0.00 | 0.00 | 56 | 1014.4 |
| 20260901064534 | 58 | 130 | 6.0 | 8.0 | 0.00 | 0.00 | 0.00 | 56 | 1014.5 |
| 20260901063038 | 57 | 86 | 2.0 | 7.0 | 0.00 | 0.00 | 0.00 | 57 | 1014.5 |
| 20260901061536 | 57 | 142 | 4.0 | 7.0 | 0.00 | 0.00 | 0.00 | 56 | 1014.7 |
| 20260901060035 | 58 | 146 | 5.0 | 9.0 | 0.00 | 0.00 | 0.00 | 54 | 1014.5 |
| 20260901054538 | 58 | 159 | 6.0 | 9.0 | 0.00 | 0.00 | 0.00 | 54 | 1014.8 |
| 20260901053052 | 58 | 132 | 3.0 | 5.0 | 0.00 | 0.00 | 0.00 | 53 | 1014.9 |
| 20260901051548 | 60 | 148 | 4.0 | 6.0 | 0.00 | 0.00 | 0.00 | 51 | 1014.9 |
| 20260901050036 | 60 | 136 | 4.0 | 6.0 | 0.00 | 0.00 | 0.00 | 51 | 1015.0 |
| 20260901044551 | 60 | 103 | 3.0 | 4.0 | 0.00 | 0.00 | 0.00 | 50 | 1015.0 |
| 20260901043036 | 61 | 118 | 5.0 | 7.0 | 0.00 | 0.00 | 0.00 | 50 | 1014.9 |
| 20260901041535 | 60 | 118 | 4.0 | 6.0 | 0.00 | 0.00 | 0.00 | 51 | 1015.0 |
| 20260901040058 | 62 | 120 | 5.0 | 8.0 | 0.00 | 0.00 | 0.00 | 48 | 1014.9 |
| 20260901034537 | 62 | 132 | 7.0 | 8.0 | 0.00 | 0.00 | 0.00 | 48 | 1014.8 |
| 20260901033037 | 63 | 126 | 7.0 | 8.0 | 0.00 | 0.00 | 0.00 | 46 | 1014.6 |
| 20260901031535 | 64 | 113 | 6.0 | 7.0 | 0.00 | 0.00 | 0.00 | 45 | 1014.5 |
| 20260901030036 | 65 | 118 | 4.0 | 7.0 | 0.00 | 0.00 | 0.00 | 43 | 1014.4 |
| 20260901024535 | 66 | 95 | 3.0 | 5.0 | 0.00 | 0.00 | 0.00 | 43 | 1014.5 |
| 20260901023051 | 69 | 141 | 3.0 | 5.0 | 0.00 | 0.00 | 0.00 | 38 | 1014.4 |
| 20260901021537 | 70 | 150 | 3.0 | 6.0 | 0.00 | 0.00 | 0.00 | 37 | 1014.4 |
| 20260901020043 | 70 | 151 | 4.0 | 6.0 | 0.00 | 0.00 | 0.00 | 38 | 1014.5 |
| 20260901014550 | 71 | 157 | 4.0 | 5.0 | 0.00 | 0.00 | 0.00 | 37 | 1014.4 |
| 20260901013036 | 72 | 183 | 4.0 | 8.0 | 0.00 | 0.00 | 0.00 | 36 | 1014.4 |
| 20260901011539 | 72 | 205 | 6.0 | 9.0 | 0.00 | 0.00 | 0.00 | 36 | 1014.4 |
| 20260901010036 | 72 | 186 | 7.0 | 10.0 | 0.00 | 0.00 | 0.00 | 35 | 1014.5 |
| 20260901004543 | 73 | 200 | 8.0 | 14.0 | 0.00 | 0.00 | 0.00 | 35 | 1014.6 |
| 20260901003037 | 73 | 197 | 8.0 | 13.0 | 0.00 | 0.00 | 0.00 | 36 | 1014.7 |
| 20260901001536 | 73 | 202 | 7.0 | 17.0 | 0.00 | 0.00 | 0.00 | 36 | 1014.7 |
| 20260901000039 | 73 | 165 | 7.0 | 14.0 | 0.00 | 0.00 | 0.00 | 36 | 1014.6 |
| 20260831234537 | 73 | 209 | 7.0 | 15.0 | 0.00 | 0.00 | 0.00 | 36 | 1014.8 |
| 20260831233035 | 74 | 234 | 6.0 | 12.0 | 0.00 | 0.00 | 0.00 | 37 | 1014.8 |
| 20260831231538 | 73 | 69 | 3.0 | 9.0 | 0.00 | 0.00 | 0.00 | 37 | 1014.8 |
| 20260831230041 | 72 | 144 | 11.0 | 18.0 | 0.00 | 0.00 | 0.00 | 38 | 1014.9 |
| 20260831224538 | 72 | 215 | 9.0 | 15.0 | 0.00 | 0.00 | 0.00 | 38 | 1014.9 |
| 20260831223036 | 72 | 235 | 10.0 | 14.0 | 0.00 | 0.00 | 0.00 | 38 | 1015.0 |
| 20260831221536 | 73 | 212 | 3.0 | 10.0 | 0.00 | 0.00 | 0.00 | 38 | 1015.2 |
| 20260831220038 | 73 | 277 | 6.0 | 13.0 | 0.00 | 0.00 | 0.00 | 39 | 1015.1 |
| 20260831214539 | 72 | 298 | 9.0 | 15.0 | 0.00 | 0.00 | 0.00 | 39 | 1015.2 |
| 20260831213034 | 71 | 233 | 10.0 | 15.0 | 0.00 | 0.00 | 0.00 | 40 | 1015.4 |
| 20260831211536 | 71 | 304 | 10.0 | 17.0 | 0.00 | 0.00 | 0.00 | 39 | 1015.4 |
| 20260831210037 | 71 | 253 | 9.0 | 19.0 | 0.00 | 0.00 | 0.00 | 40 | 1015.4 |
| 20260831204549 | 71 | 323 | 10.0 | 18.0 | 0.00 | 0.00 | 0.00 | 40 | 1015.5 |
| 20260831203037 | 71 | 205 | 3.0 | 12.0 | 0.00 | 0.00 | 0.00 | 41 | 1015.7 |
| 20260831201536 | 70 | 272 | 11.0 | 16.0 | 0.00 | 0.00 | 0.00 | 41 | 1015.8 |
| 20260831200044 | 69 | 298 | 12.0 | 21.0 | 0.00 | 0.00 | 0.00 | 42 | 1015.7 |
| 20260831194540 | 69 | 276 | 11.0 | 16.0 | 0.00 | 0.00 | 0.00 | 42 | 1015.9 |
| 20260831193040 | 68 | 248 | 11.0 | 18.0 | 0.00 | 0.00 | 0.00 | 45 | 1016.0 |
| 20260831191537 | 68 | 267 | 9.0 | 12.0 | 0.00 | 0.00 | 0.00 | 45 | 1016.3 |
| 20260831190048 | 68 | 290 | 7.0 | 17.0 | 0.00 | 0.00 | 0.00 | 44 | 1016.5 |
| 20260831184536 | 68 | 220 | 9.0 | 19.0 | 0.00 | 0.00 | 0.00 | 45 | 1016.6 |
| 20260831183038 | 67 | 344 | 9.0 | 15.0 | 0.00 | 0.00 | 0.00 | 46 | 1016.5 |
| 20260831181535 | 67 | 305 | 11.0 | 22.0 | 0.00 | 0.00 | 0.00 | 46 | 1016.5 |
| 20260831180044 | 67 | 285 | 13.0 | 18.0 | 0.00 | 0.00 | 0.00 | 45 | 1016.6 |
| 20260831174543 | 67 | 282 | 8.0 | 17.0 | 0.00 | 0.00 | 0.00 | 48 | 1016.6 |
| 20260831173039 | 66 | 291 | 10.0 | 16.0 | 0.00 | 0.00 | 0.00 | 49 | 1016.7 |
| 20260831171537 | 66 | 288 | 9.0 | 19.0 | 0.00 | 0.00 | 0.00 | 48 | 1016.5 |
| 20260831170037 | 65 | 315 | 9.0 | 20.0 | 0.00 | 0.00 | 0.00 | 51 | 1016.6 |
| 20260831164553 | 65 | 5 | 12.0 | 20.0 | 0.00 | 0.00 | 0.00 | 52 | 1016.6 |
| 20260831163041 | 64 | 321 | 11.0 | 22.0 | 0.00 | 0.00 | 0.00 | 54 | 1016.5 |
| 20260831161535 | 64 | 292 | 10.0 | 20.0 | 0.00 | 0.00 | 0.00 | 54 | 1016.4 |
| 20260831160043 | 63 | 306 | 11.0 | 21.0 | 0.00 | 0.00 | 0.00 | 54 | 1016.3 |
| 20260831154604 | 62 | 284 | 11.0 | 19.0 | 0.00 | 0.00 | 0.00 | 54 | 1016.3 |
| 20260831153036 | 61 | 294 | 14.0 | 20.0 | 0.00 | 0.00 | 0.00 | 55 | 1016.4 |
| 20260831151534 | 59 | 296 | 16.0 | 22.0 | 0.00 | 0.00 | 0.00 | 57 | 1016.2 |
| 20260831150043 | 58 | 295 | 16.0 | 23.0 | 0.00 | 0.00 | 0.00 | 58 | 1016.1 |
| 20260831144538 | 57 | 300 | 18.0 | 25.0 | 0.00 | 0.00 | 0.00 | 59 | 1015.8 |
| 20260831143038 | 56 | 281 | 15.0 | 25.0 | 0.00 | 0.00 | 0.00 | 62 | 1015.6 |
| 20260831141535 | 54 | 290 | 14.0 | 20.0 | 0.00 | 0.00 | 0.00 | 65 | 1015.5 |
| 20260831140038 | 53 | 276 | 11.0 | 18.0 | 0.00 | 0.00 | 0.00 | 67 | 1015.5 |
| 20260831134534 | 51 | 290 | 11.0 | 17.0 | 0.00 | 0.00 | 0.00 | 71 | 1015.2 |
| 20260831133035 | 49 | 270 | 10.0 | 16.0 | 0.00 | 0.00 | 0.00 | 73 | 1015.2 |
| 20260831131535 | 48 | 279 | 12.0 | 16.0 | 0.00 | 0.00 | 0.00 | 75 | 1014.9 |
| 20260831130107 | 46 | 284 | 8.0 | 11.0 | 0.00 | 0.00 | 0.00 | 78 | 1014.9 |
| 20260831124535 | 47 | 295 | 10.0 | 15.0 | 0.00 | 0.00 | 0.00 | 76 | 1014.7 |
| 20260831123033 | 47 | 290 | 9.0 | 13.0 | 0.00 | 0.00 | 0.00 | 76 | 1014.5 |
| 20260831121536 | 48 | 294 | 9.0 | 15.0 | 0.00 | 0.00 | 0.00 | 74 | 1014.5 |
| 20260831120040 | 49 | 276 | 11.0 | 17.0 | 0.00 | 0.00 | 0.00 | 72 | 1014.2 |
| 20260831114536 | 49 | 288 | 13.0 | 18.0 | 0.00 | 0.00 | 0.00 | 71 | 1014.1 |
| 20260831113038 | 49 | 266 | 11.0 | 17.0 | 0.00 | 0.00 | 0.00 | 71 | 1014.3 |
| 20260831111546 | 49 | 271 | 11.0 | 18.0 | 0.00 | 0.00 | 0.00 | 71 | 1014.2 |
| 20260831110040 | 50 | 254 | 13.0 | 19.0 | 0.00 | 0.00 | 0.00 | 71 | 1014.1 |
| 20260831104552 | 49 | 269 | 12.0 | 20.0 | 0.00 | 0.00 | 0.00 | 72 | 1014.1 |